SCP
-0 -0 0 0 0 0 0 0 0 1 1 0 0 0 0 0 0 0 0 0 0 0 0 0 0 0 0 0 0 0 0 0 0
-0 -0 -0 0 0 0 0 0 0 1 1 0 0 0 0 0 0 0 0 0 0 0 0 0 0 0 0 0 0 0 0 0 0
-0 -0 0 0 0 0 0 0 0 0 0 0 0 0 0 0 0 -0 0 0 0 -0 -0 0 0 0 0 0 0 0 0 0 0
-0 -0 -0 0 0 0 0 0 0 0 0 0 0 0 0 0 0 0 0 0 0 0 -0 0 -0 -0 0 0 0 0 0 0 0
-0 0 0 0 0 -0 0 0 0 0 0 0 0 0 0 0 0 0 0 0 0 0 0 0 0 -0 -0 0 0 0 0 0 0
-0 0 0 0 1 0 0 0 0 1 1 1 0 0 0 0 0 0 0 0 0 0 0 0 0 0 0 0 0 0 0 0 0
0 1 0 0 1 1 1 1 1 1 1 1 1 0 0 0 0 0 0 0 0 0 0 0 0 0 0 0 0 0 -0 0 0
1 1 0 1 1 0 0 1 1 1 0 0 0 0 0 0 0 0 0 0 0 0 0 0 0 0 0 0 0 -0 0 -0 0
1 1 1 1 1 0 0 0 0 0 0 0 0 0 0 0 0 0 0 0 0 0 0 0 0 0 0 0 0 0 0 -0 -0
2 4 2 0 0 0 0 0 0 0 0 0 0 0 0 0 0 0 0 0 0 0 0 0 0 0 0 0 0 0 0 0 0
1 0 0 -0 -0 0 0 0 0 0 0 0 0 0 0 0 0 0 0 0 0 0 0 0 0 0 0 0 0 0 0 0 0
0 0 0 -0 -0 -0 0 0 0 0 0 0 0 0 0 0 0 0 0 0 0 0 0 0 0 0 0 0 0 0 0 0 0
0 0 0 0 -0 0 0 0 0 0 0 0 0 0 0 0 0 0 0 0 -0 -0 -0 0 0 0 0 0 0 0 0 0 0
0 0 0 0 0 0 0 0 0 0 0 0 0 0 0 0 0 -0 -0 -0 -0 -0 0 0 0 0 0 0 0 0 0 0 0
0 0 0 0 0 0 0 0 0 0 0 0 0 0 0 0 0 0 0 -0 -0 0 0 0 0 0 0 0 0 0 0 0 -0
0 0 0 0 0 0 0 0 0 0 0 0 0 0 0 0 0 0 0 0 0 -0 0 0 0 0 0 0 0 0 0 0 0
0 0 0 0 0 0 0 0 0 0 0 0 0 0 0 0 0 0 0 0 0 0 0 0 0 -0 -0 0 0 0 0 0 0
0 0 0 0 0 0 0 0 0 0 0 0 0 0 0 0 0 0 0 0 0 0 0 0 0 0 0 0 0 0 0 0 0
0 0 0 0 0 0 0 0 0 0 0 0 0 0 0 0 0 0 0 0 0 0 0 0 0 0 0 0 0 0 0 0 0
0 0 0 0 0 0 0 0 0 0 0 0 0 0 0 0 0 0 0 0 0 0 0 0 0 0 0 0 0 0 0 0 0
Wind_Speed_500mb
39 29 18 17 20 19 24 27 27 27 26 16 14 15 11 12 25 42 42 33 35 22 25 43 52 62 55 39 38 29 29 37 46
47 36 21 20 20 18 16 15 15 10 8 10 7 1 9 12 29 45 48 32 32 17 2 8 19 34 31 44 33 28 32 34 39
49 37 33 25 19 18 18 14 13 8 3 7 12 13 17 13 24 34 42 43 40 23 13 13 6 22 32 47 28 32 32 35 38
54 48 44 36 27 23 20 11 4 1 4 8 9 15 19 19 25 29 27 28 34 32 16 14 15 18 7 24 28 24 29 31 38
52 57 52 41 30 31 23 10 5 2 3 3 9 10 15 16 24 28 25 24 19 16 10 11 14 16 17 11 18 25 28 27 34
66 64 53 45 41 32 22 10 8 5 3 6 9 11 17 17 19 22 24 25 25 26 20 23 17 10 9 16 18 18 19 26 26
76 66 63 49 43 35 19 12 17 10 5 3 4 9 11 14 19 21 24 28 31 33 34 33 28 19 12 12 20 23 28 24 14
66 75 64 44 39 28 19 21 16 10 10 8 12 17 21 21 22 23 24 26 29 30 30 29 28 23 15 10 12 21 25 23 17
62 73 63 48 35 27 22 21 15 12 8 8 10 18 19 22 18 24 25 28 31 30 28 29 26 24 19 13 10 15 15 17 22
60 44 19 67 40 26 17 10 6 10 8 0 8 12 14 15 18 19 25 31 32 33 34 31 29 24 20 18 13 17 23 22 20
33 18 35 39 13 25 12 11 16 22 18 16 11 14 15 18 22 22 23 28 31 33 32 33 33 32 30 26 25 29 34 30 27
34 30 13 9 41 47 21 26 27 23 25 26 20 17 20 20 14 19 27 30 32 35 38 39 41 44 43 38 40 36 31 28 29
26 10 14 29 27 33 39 30 33 30 28 19 17 16 17 21 29 39 41 40 44 49 51 51 48 45 42 39 30 22 14 20 24
28 41 36 22 23 24 21 18 14 16 12 21 24 21 22 35 47 57 47 54 61 50 37 35 34 35 33 31 24 20 26 28 25
45 42 24 26 27 22 13 3 4 6 11 17 21 29 38 49 56 51 58 63 51 40 40 37 37 38 35 31 28 32 31 23 20
23 28 29 22 15 11 10 14 18 23 28 27 31 37 42 49 54 52 52 49 50 50 48 48 41 43 43 40 35 37 32 39 47
39 32 20 8 5 10 13 19 24 23 24 29 34 42 48 49 49 51 52 55 59 60 43 53 66 68 66 60 54 42 37 42 45
39 25 13 8 6 13 14 16 21 25 31 39 45 49 48 49 49 50 49 50 51 53 61 70 59 50 46 52 53 46 39 39 40
32 23 14 8 7 12 18 25 31 37 41 45 49 54 55 56 57 57 56 58 62 57 62 56 50 47 50 50 49 46 38 35 39
24 14 4 7 14 19 24 30 35 40 45 48 47 47 48 49 49 48 48 50 53 61 60 50 53 52 52 51 54 47 42 45 44
Wind_Direction_500mb
158 142 121 123 131 124 127 136 144 159 184 207 238 256 274 328 358 4 336 338 337 322 252 237 234 231 235 239 234 231 238 249 254
163 153 136 116 143 160 168 152 146 158 200 245 251 334 9 16 26 20 19 9 18 27 49 209 231 238 225 251 251 241 248 250 258
166 159 149 139 130 138 142 156 168 167 147 93 51 53 15 341 339 356 14 25 31 40 85 102 106 218 223 230 247 259 258 261 266
174 167 159 145 145 156 160 161 167 309 70 27 351 5 4 2 351 358 3 10 28 37 35 20 29 45 198 214 283 287 279 274 272
183 167 156 154 160 160 161 174 198 56 81 323 337 1 350 349 346 352 5 6 352 347 343 336 332 337 12 329 314 309 288 278 271
173 162 154 158 161 164 170 177 198 192 191 303 332 307 323 342 345 354 13 14 13 19 359 346 325 305 267 279 288 305 311 304 280
165 161 156 159 157 159 164 190 189 183 187 262 291 318 336 3 30 36 32 27 18 12 11 7 9 357 357 301 270 264 276 279 288
165 165 161 158 160 168 190 178 179 165 134 78 50 19 6 3 5 2 16 13 7 2 358 360 2 1 2 340 289 275 277 284 265
177 179 174 165 170 182 181 179 171 165 120 48 30 20 15 6 357 10 5 5 5 359 358 357 360 5 5 349 324 310 316 290 277
177 187 111 162 173 186 183 177 174 229 220 274 359 346 324 313 304 324 336 343 345 351 351 351 352 352 346 338 343 342 332 324 309
156 82 77 89 233 207 189 264 243 228 235 264 296 312 296 291 296 292 306 321 328 335 338 337 338 338 334 323 310 313 319 308 298
141 131 134 186 196 221 228 245 231 235 245 243 261 273 269 279 267 285 305 311 319 322 319 318 317 317 316 314 310 305 297 291 290
153 177 192 180 209 230 237 236 223 224 231 240 273 299 297 298 310 316 318 320 322 319 313 310 311 312 312 312 312 319 300 297 290
152 137 122 120 149 168 154 149 157 198 255 299 301 295 303 315 318 319 313 321 324 324 322 322 325 327 331 332 307 315 307 306 309
143 147 134 135 141 134 126 121 317 316 299 299 300 307 310 314 314 307 309 315 322 323 326 327 327 323 316 317 321 323 316 307 306
141 140 122 117 105 86 49 8 347 333 326 305 299 301 305 301 304 306 309 312 315 321 317 320 321 322 322 325 313 301 307 294 300
138 130 123 95 18 344 331 313 300 288 279 280 286 293 298 301 303 305 304 308 313 314 310 316 313 307 307 305 298 299 303 300 292
136 135 154 193 283 296 289 277 280 284 288 292 296 297 295 292 295 298 297 295 296 299 300 307 307 309 309 315 309 305 298 294 292
143 148 155 197 246 272 278 284 290 293 295 297 298 298 299 300 301 299 298 297 297 293 301 301 295 294 302 308 311 299 293 285 285
146 149 183 296 298 296 294 296 301 303 305 306 307 308 310 311 311 309 310 306 305 307 303 295 296 298 303 305 307 300 302 293 291
Wind_Speed_850mb
39 29 18 17 20 19 24 27 27 27 26 16 14 15 11 12 25 42 42 33 35 22 25 43 52 62 55 39 38 29 29 37 46
47 36 21 20 20 18 16 15 15 10 8 10 7 1 9 12 29 45 48 32 32 17 2 8 19 34 31 44 33 28 32 34 39
49 37 33 25 19 18 18 14 13 8 3 7 12 13 17 13 24 34 42 43 40 23 13 13 6 22 32 47 28 32 32 35 38
54 48 44 36 27 23 20 11 4 1 4 8 9 15 19 19 25 29 27 28 34 32 16 14 15 18 7 24 28 24 29 31 38
52 57 52 41 30 31 23 10 5 2 3 3 9 10 15 16 24 28 25 24 19 16 10 11 14 16 17 11 18 25 28 27 34
66 64 53 45 41 32 22 10 8 5 3 6 9 11 17 17 19 22 24 25 25 26 20 23 17 10 9 16 18 18 19 26 26
76 66 63 49 43 35 19 12 17 10 5 3 4 9 11 14 19 21 24 28 31 33 34 33 28 19 12 12 20 23 28 24 14
66 75 64 44 39 28 19 21 16 10 10 8 12 17 21 21 22 23 24 26 29 30 30 29 28 23 15 10 12 21 25 23 17
62 73 63 48 35 27 22 21 15 12 8 8 10 18 19 22 18 24 25 28 31 30 28 29 26 24 19 13 10 15 15 17 22
60 44 19 67 40 26 17 10 6 10 8 0 8 12 14 15 18 19 25 31 32 33 34 31 29 24 20 18 13 17 23 22 20
33 18 35 39 13 25 12 11 16 22 18 16 11 14 15 18 22 22 23 28 31 33 32 33 33 32 30 26 25 29 34 30 27
34 30 13 9 41 47 21 26 27 23 25 26 20 17 20 20 14 19 27 30 32 35 38 39 41 44 43 38 40 36 31 28 29
26 10 14 29 27 33 39 30 33 30 28 19 17 16 17 21 29 39 41 40 44 49 51 51 48 45 42 39 30 22 14 20 24
28 41 36 22 23 24 21 18 14 16 12 21 24 21 22 35 47 57 47 54 61 50 37 35 34 35 33 31 24 20 26 28 25
45 42 24 26 27 22 13 3 4 6 11 17 21 29 38 49 56 51 58 63 51 40 40 37 37 38 35 31 28 32 31 23 20
23 28 29 22 15 11 10 14 18 23 28 27 31 37 42 49 54 52 52 49 50 50 48 48 41 43 43 40 35 37 32 39 47
39 32 20 8 5 10 13 19 24 23 24 29 34 42 48 49 49 51 52 55 59 60 43 53 66 68 66 60 54 42 37 42 45
39 25 13 8 6 13 14 16 21 25 31 39 45 49 48 49 49 50 49 50 51 53 61 70 59 50 46 52 53 46 39 39 40
32 23 14 8 7 12 18 25 31 37 41 45 49 54 55 56 57 57 56 58 62 57 62 56 50 47 50 50 49 46 38 35 39
24 14 4 7 14 19 24 30 35 40 45 48 47 47 48 49 49 48 48 50 53 61 60 50 53 52 52 51 54 47 42 45 44
Wind_Direction_850mb
158 142 121 123 131 124 127 136 144 159 184 207 238 256 274 328 358 4 336 338 337 322 252 237 234 231 235 239 234 231 238 249 254
163 153 136 116 143 160 168 152 146 158 200 245 251 334 9 16 26 20 19 9 18 27 49 209 231 238 225 251 251 241 248 250 258
166 159 149 139 130 138 142 156 168 167 147 93 51 53 15 341 339 356 14 25 31 40 85 102 106 218 223 230 247 259 258 261 266
174 167 159 145 145 156 160 161 167 309 70 27 351 5 4 2 351 358 3 10 28 37 35 20 29 45 198 214 283 287 279 274 272
183 167 156 154 160 160 161 174 198 56 81 323 337 1 350 349 346 352 5 6 352 347 343 336 332 337 12 329 314 309 288 278 271
173 162 154 158 161 164 170 177 198 192 191 303 332 307 323 342 345 354 13 14 13 19 359 346 325 305 267 279 288 305 311 304 280
165 161 156 159 157 159 164 190 189 183 187 262 291 318 336 3 30 36 32 27 18 12 11 7 9 357 357 301 270 264 276 279 288
165 165 161 158 160 168 190 178 179 165 134 78 50 19 6 3 5 2 16 13 7 2 358 360 2 1 2 340 289 275 277 284 265
177 179 174 165 170 182 181 179 171 165 120 48 30 20 15 6 357 10 5 5 5 359 358 357 360 5 5 349 324 310 316 290 277
177 187 111 162 173 186 183 177 174 229 220 274 359 346 324 313 304 324 336 343 345 351 351 351 352 352 346 338 343 342 332 324 309
156 82 77 89 233 207 189 264 243 228 235 264 296 312 296 291 296 292 306 321 328 335 338 337 338 338 334 323 310 313 319 308 298
141 131 134 186 196 221 228 245 231 235 245 243 261 273 269 279 267 285 305 311 319 322 319 318 317 317 316 314 310 305 297 291 290
153 177 192 180 209 230 237 236 223 224 231 240 273 299 297 298 310 316 318 320 322 319 313 310 311 312 312 312 312 319 300 297 290
152 137 122 120 149 168 154 149 157 198 255 299 301 295 303 315 318 319 313 321 324 324 322 322 325 327 331 332 307 315 307 306 309
143 147 134 135 141 134 126 121 317 316 299 299 300 307 310 314 314 307 309 315 322 323 326 327 327 323 316 317 321 323 316 307 306
141 140 122 117 105 86 49 8 347 333 326 305 299 301 305 301 304 306 309 312 315 321 317 320 321 322 322 325 313 301 307 294 300
138 130 123 95 18 344 331 313 300 288 279 280 286 293 298 301 303 305 304 308 313 314 310 316 313 307 307 305 298 299 303 300 292
136 135 154 193 283 296 289 277 280 284 288 292 296 297 295 292 295 298 297 295 296 299 300 307 307 309 309 315 309 305 298 294 292
143 148 155 197 246 272 278 284 290 293 295 297 298 298 299 300 301 299 298 297 297 293 301 301 295 294 302 308 311 299 293 285 285
146 149 183 296 298 296 294 296 301 303 305 306 307 308 310 311 311 309 310 306 305 307 303 295 296 298 303 305 307 300 302 293 291